Flag for Northern Mariana Islands Weather past 2 weeks in Saipan, Northern Mariana Islands

86 °F

Partly sunny.

Feels Like: 98 °F
Forecast: 76 / 82 °F
Wind: 15 mph from East

Location: Saipan International Airport

Current Time: Dec 1, 2015 at 12:54:41 PM

Latest Report: Dec 1, 2015 at 11:54 AM

Visibility: 10 mi

Pressure: 29.96 "Hg

Humidity: 77%

Dew point: 78 °F

Location of SaipanLocation

Historic Weather in Saipan — Graph


Saipan temperature yesterday

Maximum temperature yesterday: 86 °F (at 11:54 AM)
Minimum temperature yesterday: 77 °F (at 2:54 PM)
Average temperature yesterday: 80 °F

Past Weeks' High & Low Weather Summary

High87 °F (Nov 16, 12:54 PM)100% (Nov 18, 7:17 PM)30.05 "Hg (Nov 18, 7:17 PM)
Low77 °F (Nov 18, 6:01 PM)66% (Nov 29, 12:12 PM)29.81 "Hg (Nov 21, 1:29 PM)
Average82 °F83%29.93 "Hg
* Reported Nov 16 10:54 AM — Dec 1 10:54 AM, Saipan, Weather by CustomWeather, © 2015

Note: Actual official high and low records may vary slightly from our data, if they occured in-between our weather recording intervals... More about our weather records


Saipan weather history for previous 24 hours

Time TempWeatherWind HumidityBarometerVisibility
10:54 AM
Tue, Dec 1
83 °FOvercast.15 mph82%29.93 "Hg10 mi
10:30 AM79 °FMostly cloudy.15 mph89%29.94 "Hg10 mi
9:54 AM83 °FScattered clouds.16 mph85%30.00 "Hg10 mi
8:54 AM81 °FScattered clouds.7 mph91%30.00 "Hg10 mi
8:19 AM81 °FScattered clouds.8 mph94%29.93 "Hg10 mi
7:54 AM79 °FMore clouds than sun.7 mph97%29.99 "Hg10 mi
7:34 AM79 °FMostly cloudy.8 mph100%29.92 "Hg10 mi
7:01 AM79 °FLight rain. Cloudy.10 mph100%N/A7 mi
5:54 AM79 °FPassing clouds.14 mph89%29.95 "Hg10 mi
4:54 AM79 °FPassing clouds.14 mph89%29.93 "Hg10 mi
3:54 AM79 °FPassing clouds.14 mph89%29.93 "Hg10 mi
2:54 AM81 °FPassing clouds.16 mph89%29.95 "Hg10 mi
1:54 AM81 °FPassing clouds.16 mph89%29.95 "Hg10 mi
12:54 AM81 °FPassing clouds.14 mph89%29.95 "Hg10 mi
11:54 PM
Mon, Nov 30
80 °FPassing clouds.14 mph90%29.96 "Hg10 mi
10:11 PM79 °FWarm.N/A89%29.91 "HgN/A
9:54 PM79 °FPartly cloudy.12 mph88%29.98 "Hg10 mi
8:54 PM80 °FPassing clouds.13 mph85%29.97 "Hg10 mi
8:11 PM79 °FPassing clouds.14 mph89%29.90 "Hg10 mi
7:54 PM80 °FPassing clouds.12 mph87%29.96 "Hg10 mi
7:14 PM79 °FPartly cloudy.10 mph89%29.89 "Hg10 mi
6:54 PM78 °FPassing clouds.8 mph96%29.94 "Hg10 mi
5:54 PM77 °FMostly cloudy.9 mph96%29.87 "Hg10 mi
4:41 PM81 °FScattered clouds.12 mph84%29.86 "Hg10 mi
3:54 PM82 °FPassing clouds.16 mph82%29.86 "Hg10 mi
2:54 PM77 °FLight rain. Broken clouds.9 mph96%29.86 "Hg8 mi
1:54 PM86 °FPassing clouds.20 mph67%29.92 "Hg10 mi
12:54 PM86 °FPassing clouds.20 mph67%29.94 "Hg10 mi
Weather by CustomWeather, © 2015

See weather overviewHow to use our weather pages